Location: Mainz-Finthen
(49.9906°N, 8.1713°E)
Time: 05:59:01
(UTC+00:00)

BlueWalker 3 - Pass Details

Date: 05 December 2022
Orbit: 499 x 517 km, 53.2° (Epoch: 28 January)

Event Time Altitude Azimuth Distance (km) Brightness Sun altitude
Rises 18:16:24 0° 292° (WNW) 2,629 6.6 -26.2°
Reaches altitude 10° 18:18:36 10° 291° (WNW) 1,737 5.5 -26.6°
Enters shadow 18:21:09 38° 284° (WNW) 789 3.3 -27.0°
